Location: ?????? ??????
(44.3742°N, 135.2221°E)
Time: 02:47:42
(UTC+00:00)

RESURS DK-1 - Pass Details

Date: 19 May 2025
Orbit: 530 x 536 km, 69.9° (Epoch: 15 June)

Event Time Altitude Azimuth Distance (km) Brightness Sun altitude
Exits shadow 18:01:40 - 170° (S) 2,099 4.9 -12.9°
Reaches altitude 10° 18:02:33 10° 164° (SSE) 1,787 4.6 -12.8°
Maximum altitude 18:05:52 26° 107° (ESE) 1,094 4.1 -12.4°
Drops below altitude 10° 18:09:12 10° 51° (NE) 1,801 6.5 -12.0°
Sets 18:11:38 0° 38° (NE) 2,697 7.9 -11.7°
